Regional Weather Roundup
Issued by NWS Kansas City/Pleasant Hill, MO

Home | Current Version | Previous Version | Graphics & Text | Print | Product List | Glossary Off
Versions: 1 2 3 4 5 6 7 8 9 10 11 12 13 14 15 16 17 18 19 20 21 22 23 24 25 26 27 28 29 30 31 32 33 34 35 36 37 38 39 40 41 42 43 44 45 46 47 48 49 50

000
ASUS43 KEAX 050511
RWREAX

WEATHER ROUNDUP FOR EASTERN KANSAS AND NORTHWEST MISSOURI
NATIONAL WEATHER SERVICE KANSAS CITY/PLEASANT HILL MO
1100 PM CST WED MAR 04 2015

KSZ040-057-103>105-MOZ028-029-037-043-050600-
...KANSAS CITY METROPOLITAN AREA...

CITY           SKY/WX    TMP DP  RH WIND       PRES   REMARKS
K.C. INTL      PTCLDY    18   3  52 N9        30.41R WCI   7
K.C. DOWNTOWN  MOCLDY    25   2  37 N10       30.43R WCI  15
LEES SUMMIT    MOCLDY    25   6  44 N15       30.41R WCI  13
OLATHE - IXD   MOCLDY    21   8  57 N10       30.40R WCI  10
OLATHE - OJC   MOCLDY    25   5  42 N13       30.39R WCI  14
LAWRENCE       PTCLDY    23   4  44 N12       30.43R WCI  12

$$

MOZ001>008-011>017-020>025-030>033-038>040-044>046-053-054-050600-
...NORTHERN AND CENTRAL MISSOURI...

CITY           SKY/WX    TMP DP  RH WIND       PRES   REMARKS
ST. JOSEPH     FAIR      17   4  56 N9        30.47R WCI   6
MOSBY          MOCLDY    23   5  46 N8        30.43F WCI  14
WARRENSBURG    PTCLDY    23  10  58 CALM      30.42R
WHITEMAN AFB   NOT AVBL
CLINTON        PTCLDY    23  14  68 NW3       30.41F
SEDALIA        FAIR      22   6  50 W3        30.40R
WARSAW         NOT AVBL
MARSHALL       FAIR      27  10  50 CALM      30.40R
CHILLICOTHE      N/A     21   5  50 N7G16     30.45R WCI  12
MOBERLY        PTCLDY    21   7  53 W3        30.40R
KIRKSVILLE     NOT AVBL

$$

MOZ041-047>049-056>058-063>065-088>090-097-050600-
...EASTERN AND SOUTHERN MISSOURI...

CITY           SKY/WX    TMP DP  RH WIND       PRES   REMARKS
ST. LOUIS INTL CLOUDY    22   4  46 N6        30.40R WCI  14
SPIRIT OF STL  CLOUDY    22   0  38 N6        30.39S WCI  14
COLUMBIA       PTCLDY    21   7  54 CALM      30.38R
JEFFERSON CITY PTCLDY    23   6  48 CALM      30.41R
MEXICO         PTCLDY    23  12  63 CALM      30.39R
ROLLA          CLOUDY    21   6  52 N3        30.35R
OSAGE BEACH    MOCLDY    21   9  58 CALM      30.38S
SPRINGFIELD    CLOUDY    23   9  55 N9        30.34S WCI  13
BRANSON        MOCLDY    19  16  86 CALM      30.33F
NEVADA         PTCLDY    21   9  58 CALM      30.41F
JOPLIN         CLOUDY    24   8  50 N6        30.39S WCI  17
WEST PLAINS    CLOUDY    20   8  60 N9        30.29F WCI   9

$$

IAZ060-094-KSZ022-034>040-054-083-096-NEZ052-066-093-050600-
...KANSAS...SOUTHEAST NEBRASKA AND IOWA...

CITY           SKY/WX    TMP DP  RH WIND       PRES   REMARKS
TOPEKA         CLEAR     22   6  50 N10       30.43R WCI  11
MANHATTAN      CLEAR     20   6  55 CALM      30.43R
EMPORIA        PTCLDY    20   9  62 NW5       30.40S WCI  13
CHANUTE        MOCLDY    24  11  57 NW3       30.41S
WICHITA        PTCLDY    21   9  59 NW3       30.42R
OMAHA          CLEAR      9  -1  64 N7        30.49R WCI  -2
LINCOLN        CLEAR      8  -3  61 N8        30.48R WCI  -4
FALLS CITY     CLEAR     15   0  51 N6        30.46R WCI   6
LAMONI         CLEAR     13   1  59 N10       30.42R WCI   0
DES MOINES     PTCLDY    12   4  70 N10       30.45R WCI  -1

$$



USA.gov is the U.S. government's official web portal to all federal, state and local government web resources and services.